Flag for France Weather past 2 weeks in Strasbourg, France

Now
37 °F

Clear.


Feels Like: 31 °F
Forecast: 33 / 50 °F
Wind: 9 mph from South

Location: Strasbourg Airport

Current Time: Mar 1, 2015 at 12:40:11 AM

Latest Report: Mar 1, 2015 at 12:00 AM


Visibility: N/A

Pressure: 29.98 "Hg

Humidity: 81%

Dew point: 32 °F

Location of StrasbourgLocation

Historic Weather in Strasbourg — Graph

°F

Strasbourg temperature yesterday

Maximum temperature yesterday: 48 °F (at 3:30 PM)
Minimum temperature yesterday: 30 °F (at 7:30 AM)
Average temperature yesterday: 40 °F

Past Weeks' High & Low Weather Summary

 TemperatureHumidityPressure
High57 °F (Feb 20, 2:30 PM)100% (Feb 13, 11:00 PM)30.72 "Hg (Feb 13, 11:00 PM)
Low25 °F (Feb 20, 5:00 AM)41% (Feb 20, 4:00 PM)29.50 "Hg (Feb 23, 2:00 PM)
Average38 °F82%30.03 "Hg
* Reported Feb 13 11:00 PM — Feb 28 11:30 PM, Strasbourg, Weather by CustomWeather, © 2015

Note: Actual official high and low records may vary slightly from our data, if they occured in-between our weather recording intervals... More about our weather records

Advertising

Strasbourg weather history for previous 24 hours

 ConditionsComfort  
Time TempWeatherWind HumidityBarometerVisibility
11:30 PM
Sat, Feb 28
37 °FClear.8 mph81%29.98 "HgN/A
11:00 PM37 °FClear.8 mph81%29.98 "HgN/A
10:30 PM37 °FClear.6 mph81%30.01 "HgN/A
10:00 PM37 °FClear.7 mph81%30.01 "HgN/A
9:30 PM37 °FClear.7 mph81%30.04 "HgN/A
9:00 PM37 °FClear.7 mph81%30.04 "HgN/A
8:30 PM36 °FClear.6 mph81%30.04 "HgN/A
8:00 PM37 °FClear.5 mph75%30.07 "HgN/A
7:30 PM39 °FClear.5 mph75%30.07 "HgN/A
7:00 PM41 °FClear.6 mph70%30.07 "HgN/A
6:30 PM41 °FClear.6 mph76%30.07 "HgN/A
6:00 PM43 °FPassing clouds.6 mph71%30.07 "HgN/A
5:30 PM45 °FScattered clouds.6 mph66%30.07 "HgN/A
5:00 PM46 °FPartly sunny.8 mph57%30.07 "HgN/A
4:30 PM46 °FPartly sunny.6 mph62%30.07 "HgN/A
4:00 PM48 °FScattered clouds.7 mph54%30.09 "HgN/A
3:30 PM48 °FPartly sunny.3 mph54%30.09 "HgN/A
3:00 PM46 °FPartly sunny.6 mph57%30.09 "HgN/A
2:30 PM46 °FScattered clouds.8 mph62%30.09 "HgN/A
2:00 PM46 °FPassing clouds.7 mph57%30.09 "HgN/A
1:30 PM46 °FPassing clouds.7 mph57%30.12 "HgN/A
1:00 PM46 °FPassing clouds.7 mph53%30.15 "HgN/A
12:30 PM46 °FPassing clouds.6 mph57%30.15 "HgN/A
12:00 PM46 °FPassing clouds.3 mph62%30.18 "HgN/A
11:30 AM45 °FClear.5 mph71%30.18 "HgN/A
11:00 AM45 °FClear.3 mph71%30.18 "HgN/A
10:30 AM43 °FClear.2 mph76%30.18 "HgN/A
10:00 AM41 °FClear.2 mph81%30.18 "HgN/A
9:30 AM39 °FClear.1 mph87%30.18 "Hg5 mi
9:00 AM37 °FPassing clouds.No wind87%30.18 "HgN/A
8:30 AM34 °FClear.No wind93%30.18 "Hg4 mi
8:00 AM32 °FIce fog.No wind100%30.18 "Hg3 mi
7:30 AM30 °FIce fog.No wind100%30.18 "Hg3 mi
7:00 AM32 °FClear.1 mph100%30.18 "Hg4 mi
6:30 AM32 °FIce fog.1 mph93%30.18 "Hg3 mi
6:00 AM34 °FPartly cloudy.No wind93%30.18 "Hg6 mi
5:30 AM34 °FPassing clouds.3 mph87%30.18 "HgN/A
5:00 AM34 °FClear.5 mph93%30.18 "HgN/A
4:30 AM34 °FClear.3 mph87%30.15 "HgN/A
4:00 AM37 °FClear.2 mph81%30.15 "HgN/A
3:30 AM37 °FOvercast.6 mph87%30.15 "HgN/A
3:00 AM37 °FClear.3 mph87%30.18 "HgN/A
2:30 AM37 °FMostly cloudy.1 mph87%30.18 "HgN/A
2:00 AM37 °FOvercast.2 mph87%30.18 "HgN/A
1:30 AM39 °FOvercast.5 mph81%30.18 "HgN/A
1:00 AM39 °FMostly cloudy.5 mph81%30.18 "HgN/A
12:30 AM39 °FOvercast.3 mph81%30.18 "HgN/A
12:00 AM39 °FOvercast.5 mph81%30.18 "HgN/A
Weather by CustomWeather, © 2015

See weather overviewHow to use our weather pages